| time (UTC) | temp C | wind direction | speed KPH | gust KPH | rain 1hr cm | rain 24hr cm | rain mn cm | humidity % | barometer mb |
| 20260507060036 | 5 | 0 | 0.0 | 0.0 | 0.00 | 0.43 | 0.00 | 90 | 1014.1 |
| 20260507054538 | 5 | 0 | 0.0 | 0.0 | 0.00 | 0.76 | 0.00 | 90 | 1014.2 |
| 20260507053032 | 6 | 0 | 0.0 | 0.0 | 0.00 | 0.76 | 0.00 | 90 | 1014.1 |
| 20260507051535 | 6 | 0 | 0.0 | 0.0 | 0.00 | 0.76 | 0.00 | 90 | 1014.5 |
| 20260507050042 | 6 | 0 | 0.0 | 0.0 | 0.00 | 0.76 | 0.00 | 90 | 1014.5 |
| 20260507044535 | 6 | 0 | 0.0 | 0.0 | 0.00 | 1.04 | 0.00 | 89 | 1014.4 |
| 20260507043048 | 5 | 0 | 0.0 | 1.6 | 0.00 | 1.04 | 0.00 | 89 | 1014.5 |
| 20260507041533 | 5 | 0 | 0.0 | 1.6 | 0.00 | 1.04 | 0.00 | 88 | 1014.4 |
| 20260507040035 | 6 | 0 | 0.0 | 0.0 | 0.00 | 1.04 | 0.00 | 88 | 1014.4 |
| 20260507034536 | 6 | 0 | 0.0 | 0.0 | 0.00 | 1.07 | 1.04 | 87 | 1014.4 |
| 20260507033039 | 6 | 0 | 0.0 | 0.0 | 0.00 | 1.07 | 1.04 | 86 | 1014.5 |
| 20260507031534 | 6 | 0 | 0.0 | 0.0 | 0.00 | 1.07 | 1.04 | 86 | 1014.7 |
| 20260507030033 | 6 | 0 | 0.0 | 0.0 | 0.00 | 1.07 | 1.04 | 85 | 1014.7 |
| 20260507024535 | 7 | 0 | 0.0 | 0.0 | 0.00 | 1.24 | 1.04 | 85 | 1014.6 |
| 20260507023035 | 7 | 0 | 0.0 | 0.0 | 0.00 | 1.24 | 1.04 | 83 | 1014.7 |
| 20260507021537 | 7 | 0 | 0.0 | 0.0 | 0.00 | 1.24 | 1.04 | 81 | 1014.6 |
| 20260507020046 | 7 | 0 | 0.0 | 0.0 | 0.00 | 1.24 | 1.04 | 79 | 1014.5 |
| 20260507014536 | 8 | 0 | 0.0 | 0.0 | 0.00 | 1.45 | 1.04 | 76 | 1014.3 |
| 20260507013035 | 8 | 0 | 0.0 | 1.6 | 0.00 | 1.45 | 1.04 | 74 | 1013.9 |
| 20260507011544 | 9 | 0 | 0.0 | 0.0 | 0.00 | 1.45 | 1.04 | 73 | 1014.0 |
| 20260507010037 | 9 | 0 | 0.0 | 0.0 | 0.00 | 1.45 | 1.04 | 71 | 1014.0 |
| 20260507004535 | 10 | 0 | 0.0 | 0.0 | 0.00 | 1.52 | 1.04 | 69 | 1013.9 |
| 20260507003039 | 11 | 0 | 0.0 | 3.2 | 0.00 | 1.52 | 1.04 | 64 | 1013.6 |
| 20260507001604 | 11 | 0 | 0.0 | 3.2 | 0.00 | 1.52 | 1.04 | 62 | 1013.5 |
| 20260507000041 | 11 | 294 | 1.6 | 6.4 | 0.00 | 1.52 | 1.04 | 61 | 1013.2 |
| 20260506234535 | 12 | 336 | 1.6 | 6.4 | 0.00 | 1.52 | 1.04 | 59 | 1013.1 |
| 20260506233034 | 12 | 338 | 1.6 | 8.0 | 0.00 | 1.52 | 1.04 | 58 | 1013.1 |
| 20260506231542 | 12 | 0 | 0.0 | 9.7 | 0.00 | 1.52 | 1.04 | 59 | 1013.2 |
| 20260506230050 | 12 | 0 | 1.6 | 6.4 | 0.00 | 1.52 | 1.04 | 59 | 1013.2 |
| 20260506224536 | 12 | 360 | 0.0 | 6.4 | 0.00 | 1.57 | 1.04 | 57 | 1013.3 |
| 20260506223034 | 12 | 321 | 1.6 | 9.7 | 0.00 | 1.57 | 1.04 | 57 | 1013.5 |
| 20260506221532 | 12 | 338 | 1.6 | 6.4 | 0.00 | 1.57 | 1.04 | 57 | 1013.7 |
| 20260506220035 | 13 | 344 | 1.6 | 9.7 | 0.00 | 1.57 | 1.04 | 58 | 1013.6 |
| 20260506214537 | 13 | 319 | 1.6 | 12.9 | 0.00 | 1.65 | 1.04 | 59 | 1013.4 |
| 20260506213036 | 13 | 298 | 1.6 | 8.0 | 0.00 | 1.65 | 1.04 | 59 | 1013.0 |
| 20260506211533 | 13 | 346 | 1.6 | 12.9 | 0.00 | 1.65 | 1.04 | 58 | 1012.9 |
| 20260506210049 | 13 | 347 | 1.6 | 11.3 | 0.00 | 1.65 | 1.04 | 59 | 1012.7 |
| 20260506204532 | 13 | 0 | 1.6 | 8.0 | 0.00 | 2.18 | 1.04 | 58 | 1012.8 |
| 20260506203036 | 13 | 360 | 3.2 | 12.9 | 0.00 | 2.18 | 1.04 | 57 | 1012.8 |
| 20260506201533 | 13 | 324 | 1.6 | 6.4 | 0.00 | 2.18 | 1.04 | 58 | 1012.7 |
| 20260506200036 | 14 | 350 | 0.0 | 9.7 | 0.00 | 2.18 | 1.04 | 55 | 1012.7 |
| 20260506194532 | 14 | 29 | 1.6 | 11.3 | 0.00 | 2.18 | 1.04 | 55 | 1012.6 |
| 20260506193037 | 14 | 360 | 3.2 | 14.5 | 0.00 | 2.18 | 1.04 | 53 | 1012.4 |
| 20260506191538 | 15 | 315 | 1.6 | 6.4 | 0.00 | 2.18 | 1.04 | 56 | 1012.6 |
| 20260506190035 | 15 | 360 | 3.2 | 16.1 | 0.00 | 2.18 | 1.04 | 55 | 1012.4 |
| 20260506184537 | 15 | 67 | 1.6 | 6.4 | 0.00 | 2.18 | 1.04 | 55 | 1012.2 |
| 20260506183036 | 15 | 306 | 1.6 | 14.5 | 0.00 | 2.18 | 1.04 | 56 | 1012.4 |
| 20260506181540 | 14 | 5 | 1.6 | 16.1 | 0.00 | 2.18 | 1.04 | 58 | 1012.3 |
| 20260506180040 | 14 | 11 | 1.6 | 16.1 | 0.00 | 2.18 | 1.04 | 60 | 1012.6 |
| 20260506174539 | 14 | 342 | 1.6 | 6.4 | 0.00 | 2.18 | 1.04 | 61 | 1013.0 |
| 20260506173041 | 13 | 279 | 1.6 | 12.9 | 0.00 | 2.18 | 1.04 | 59 | 1012.8 |
| 20260506171535 | 13 | 41 | 1.6 | 11.3 | 0.00 | 2.18 | 1.04 | 57 | 1012.9 |
| 20260506170043 | 13 | 345 | 1.6 | 12.9 | 0.00 | 2.18 | 1.04 | 58 | 1013.0 |
| 20260506164545 | 13 | 360 | 1.6 | 16.1 | 0.00 | 2.18 | 1.04 | 63 | 1013.2 |
| 20260506163042 | 13 | 10 | 1.6 | 8.0 | 0.00 | 2.18 | 1.04 | 64 | 1012.9 |
| 20260506161538 | 12 | 314 | 1.6 | 6.4 | 0.00 | 2.18 | 1.04 | 70 | 1012.8 |
| 20260506160037 | 12 | 311 | 3.2 | 12.9 | 0.00 | 2.18 | 1.04 | 68 | 1013.1 |
| 20260506154539 | 12 | 342 | 1.6 | 8.0 | 0.00 | 2.18 | 1.04 | 71 | 1013.1 |
| 20260506153032 | 12 | 34 | 1.6 | 12.9 | 0.00 | 2.18 | 1.04 | 69 | 1012.8 |
| 20260506151536 | 11 | 41 | 1.6 | 14.5 | 0.00 | 2.18 | 1.04 | 74 | 1012.4 |
| 20260506150032 | 11 | 360 | 3.2 | 14.5 | 0.00 | 2.18 | 1.04 | 75 | 1012.0 |
| 20260506144538 | 10 | 0 | 1.6 | 11.3 | 0.00 | 2.18 | 1.04 | 80 | 1011.9 |
| 20260506143039 | 10 | 360 | 3.2 | 9.7 | 0.00 | 2.18 | 1.04 | 81 | 1012.0 |
| 20260506141541 | 9 | 360 | 1.6 | 8.0 | 0.00 | 2.18 | 1.04 | 83 | 1011.8 |
| 20260506140034 | 8 | 333 | 1.6 | 12.9 | 0.00 | 2.18 | 1.04 | 83 | 1011.8 |
| 20260506134538 | 8 | 5 | 1.6 | 6.4 | 0.00 | 2.18 | 1.04 | 85 | 1011.7 |
| 20260506133048 | 8 | 0 | 0.0 | 3.2 | 0.00 | 2.18 | 1.04 | 86 | 1011.4 |
| 20260506131536 | 8 | 355 | 3.2 | 17.7 | 0.00 | 2.18 | 1.04 | 88 | 1011.1 |
| 20260506130035 | 7 | 13 | 1.6 | 8.0 | 0.00 | 2.18 | 1.04 | 89 | 1011.0 |
| 20260506124534 | 7 | 0 | 0.0 | 3.2 | 0.00 | 2.18 | 1.04 | 91 | 1011.1 |
| 20260506123040 | 7 | 0 | 1.6 | 12.9 | 0.00 | 2.18 | 1.04 | 92 | 1010.9 |
| 20260506121540 | 7 | 0 | 0.0 | 1.6 | 0.00 | 2.18 | 1.04 | 93 | 1010.6 |
| 20260506120050 | 7 | 0 | 0.0 | 1.6 | 0.00 | 2.18 | 1.04 | 93 | 1010.0 |
| 20260506114534 | 6 | 0 | 0.0 | 4.8 | 0.00 | 2.21 | 1.04 | 93 | 1009.6 |
| 20260506113033 | 6 | 0 | 0.0 | 3.2 | 0.00 | 2.21 | 1.04 | 93 | 1009.7 |
| 20260506111545 | 6 | 315 | 1.6 | 12.9 | 0.00 | 2.21 | 1.04 | 93 | 1009.4 |
| 20260506110038 | 6 | 329 | 1.6 | 8.0 | 0.00 | 2.21 | 1.04 | 93 | 1009.3 |
| 20260506104545 | 6 | 341 | 1.6 | 8.0 | 0.00 | 2.21 | 1.04 | 94 | 1009.0 |
| 20260506103043 | 6 | 360 | 1.6 | 12.9 | 0.00 | 2.21 | 1.04 | 94 | 1008.2 |
| 20260506101536 | 6 | 5 | 0.0 | 8.0 | 0.03 | 2.21 | 1.04 | 94 | 1008.0 |
| 20260506100032 | 6 | 0 | 1.6 | 8.0 | 0.03 | 2.21 | 1.04 | 94 | 1008.0 |
| 20260506094534 | 6 | 10 | 1.6 | 11.3 | 0.03 | 2.21 | 1.04 | 94 | 1008.0 |
| 20260506093034 | 6 | 346 | 0.0 | 16.1 | 0.03 | 2.21 | 1.04 | 94 | 1007.8 |
| 20260506091537 | 6 | 0 | 0.0 | 14.5 | 0.00 | 2.18 | 1.02 | 94 | 1007.6 |
| 20260506090037 | 7 | 28 | 1.6 | 12.9 | 0.05 | 2.18 | 1.02 | 94 | 1007.9 |
| 20260506084608 | 7 | 360 | 3.2 | 12.9 | 0.08 | 2.18 | 1.02 | 94 | 1007.7 |
| 20260506083037 | 7 | 0 | 0.0 | 16.1 | 0.13 | 2.18 | 1.02 | 94 | 1007.7 |
| 20260506081547 | 7 | 0 | 3.2 | 19.3 | 0.18 | 2.18 | 1.02 | 94 | 1007.3 |
| 20260506073035 | 7 | 346 | 1.6 | 14.5 | 0.15 | 2.06 | 0.89 | 94 | 1007.2 |
| 20260506071535 | 7 | 0 | 3.2 | 14.5 | 0.15 | 2.01 | 0.84 | 94 | 1007.0 |
| 20260506061536 | 9 | 5 | 1.6 | 17.7 | 0.36 | 1.85 | 0.69 | 94 | 1007.1 |